Location: Schommer Observatory
(40.5200°N, 74.4500°W)
Time: 04:40:21
(UTC-05:00)

OTV 5 (USA 277) - Visible Passes

Search period start: 25 November 2017 00:00
Search period end: 05 December 2017 00:00
Orbit: 404 x 417 km, 43.0° (Epoch: 07 September)

Date Brightness Start Highest point End Pass type
(mag) Time Alt. Az. Time Alt. Az. Time Alt. Az.
30 Nov ? 17:59:12 10° S 18:00:45 13° SE 18:00:45 13° SE visible
01 Dec ? 18:43:28 10° SW 18:45:03 24° SSW 18:45:03 24° SSW visible
02 Dec ? 17:52:44 10° SSW 17:55:42 29° SSE 17:56:31 26° ESE visible
03 Dec ? 17:02:14 10° SSW 17:04:45 20° SE 17:07:17 10° E visible
03 Dec ? 18:38:23 10° WSW 18:40:41 40° WSW 18:40:41 40° WSW visible
04 Dec ? 17:47:23 10° WSW 17:50:43 62° SSE 17:52:03 32° E visible
04 Dec ? 19:24:46 10° W 19:24:49 10° W 19:24:49 10° W visible
